Location: La Brionne
(46.1728°N, 1.7849°E)
Time: 01:45:33
(UTC+00:00)

Cosmos 2219 Rocket - Pass Details

Date: 26 October 2021
Orbit: 827 x 848 km, 71.0° (Epoch: 26 November)

Event Time Altitude Azimuth Distance (km) Brightness Sun altitude
Rises 19:20:12 0° 207° (SSW) 3,354 5.5 -27.0°
Reaches altitude 10° 19:22:37 10° 209° (SSW) 2,426 4.8 -27.4°
Maximum altitude 19:28:11 81° 296° (WNW) 846 2.1 -28.3°
Enters shadow 19:28:29 78° 343° (NNW) 855 2.1 -28.4°
